[[{"header":{"parameterUnit":"m.s-1","parameterCategory":1,"la1":30.2991,"la2":30.254,"lo1":-89.0895,"lo2":-89.0444,"dy":0.0017,"dx":0.0017,"nx":28,"ny":28,"refTime":"2024-06-23T21:00:00:Z","depth":0,"parameterNumber":2,"parameterNumberName":"U-component_of_WINDS"},"data":[0,0,0,0,0,0,0,0,0,0,0,0,0,0,0,0,0,0,0,0,0,0,0,0,0,0,0,0,0,0,0,0,0,0,0,0,0,0,0,0,0,0,0,0,0,0,0,0,0,0,0,0,0,0,0,0,0,0,2.0807,2.0808,0,2.088,2.0881,2.0882,2.0871,2.087,2.0869,2.0868,2.094,2.0943,2.0946,0,0,0,0,0,0,0,0,0,0,0,0,0,2.0653,2.0656,2.0807,2.0808,2.0809,2.088,2.0881,2.0882,2.0872,2.087,2.0869,2.0867,2.0939,2.0943,2.0946,0,0,0,0,0,0,0,0,0,0,0,0,0,2.0722,2.0657,2.0807,2.0812,2.0813,2.088,2.0881,2.0882,2.0872,2.087,2.0868,2.0867,2.0938,2.0942,2.0947,2.1012,0,0,2.0961,2.0963,0,0,0,0,0,0,0,0,2.0719,2.0728,2.081,2.0812,2.0813,2.0865,2.0853,2.0926,2.0872,2.085,2.0868,2.0866,2.0916,2.0923,2.094,2.1015,2.1018,2.0961,2.0964,2.0966,2.0967,0,0,0,0,0,0,0,2.0714,2.0725,2.0836,2.0812,2.0813,2.0809,2.0817,2.0867,2.0892,2.0851,2.0851,2.086,2.0917,2.0936,2.0942,2.1019,2.0961,2.0965,2.0968,2.097,2.1148,2.115,0,0,0,0,0,0,2.0708,2.0721,2.0833,2.0838,2.0761,2.0814,2.0822,2.085,2.0892,2.0896,2.0861,2.0859,2.0929,2.0937,2.0944,2.1021,2.0966,2.097,2.0973,2.1146,2.1149,2.1151,0,0,0,0,0,0,2.0705,2.0718,2.083,2.0779,2.0793,2.0818,2.0849,2.0852,2.0872,2.0899,2.0903,2.0876,2.0928,2.0938,2.0995,2.1023,2.0973,2.0977,2.1144,2.1147,2.115,2.1176,0,0,0,0,0,0,2.07,2.0717,2.0743,2.078,2.0796,2.0881,2.0851,2.0855,2.088,2.0878,2.0915,2.0919,2.0927,2.0988,2.0999,2.1029,2.098,2.1141,2.1145,2.1149,2.1173,2.1179,2.1185,0,0,0,0,0,2.0695,2.0748,2.0745,2.0758,2.0829,2.0883,2.0892,2.0901,2.0882,2.0908,2.0925,2.0918,2.1019,2.0994,2.1007,2.1038,2.1139,2.1144,2.1148,2.117,2.1178,2.1185,0,0,0,0,0,0,2.0713,2.0753,2.075,2.0816,2.0846,2.0881,2.0913,2.091,2.0945,2.0941,2.0951,2.0959,2.1016,2.1033,2.1004,2.1101,2.1076,2.1084,2.1088,2.1096,2.1103,2.1097,2.0984,0,0,0,0,0,2.0725,2.0766,2.0798,2.0853,2.0868,2.0888,2.0912,2.0916,2.0947,2.096,2.0981,2.1011,2.1049,2.1074,2.1111,2.1175,2.1182,2.1203,2.1209,2.1214,2.122,2.1253,2.1262,2.1165,2.1165,2.1165,0,0,2.0749,2.0776,2.0801,2.0857,2.0881,2.0922,2.0899,2.0944,2.0973,2.0966,2.1021,2.1037,2.1071,2.1131,2.1159,2.1147,2.1248,2.122,2.1224,2.1227,2.1258,2.1267,2.1275,2.1168,2.1168,2.1167,0,0,2.0814,2.084,2.0888,2.0912,2.0948,2.0961,2.0972,2.1007,2.1018,2.1073,2.1068,2.1103,2.1169,2.1192,2.1212,2.1284,2.1278,2.1296,2.1329,2.1361,2.1368,2.1375,2.1398,2.1407,2.1302,2.1302,2.1302,0,2.084,2.0902,2.0912,2.0957,2.098,2.0977,2.1024,2.1047,2.1093,2.1108,2.1095,2.1176,2.1199,2.1263,2.128,2.1298,2.1309,2.1291,2.1366,2.1373,2.138,2.1402,2.1411,2.1304,2.1304,2.1303,2.1303,0,2.093,2.0973,2.1007,2.1052,2.108,2.1126,2.1141,2.1168,2.1169,2.1183,2.1237,2.1264,2.1305,2.1321,2.1323,2.1385,2.1376,2.1365,2.1339,2.139,2.1411,2.142,2.1306,2.1306,2.1305,2.1305,0,0,2.1009,2.1058,2.107,2.1089,2.1128,2.1161,2.1205,2.1246,2.1267,2.1299,2.1335,2.139,2.1379,2.1403,2.1407,2.1435,2.1488,2.142,2.1421,2.143,2.1554,2.1561,2.1571,2.1484,2.1486,2.1487,2.1551,0,2.1076,2.1155,2.1165,2.1235,2.1274,2.127,2.1308,2.1335,2.1349,2.1382,2.1396,2.1434,2.1418,2.1432,2.146,2.1475,2.1512,2.1471,2.1515,2.1517,2.1505,2.1583,2.1591,2.1649,2.1559,2.1561,2.1562,0,2.1165,2.1199,2.1273,2.1305,2.1321,2.1356,2.1392,2.1425,2.1455,2.1462,2.1488,2.1488,2.1532,2.1506,2.1565,2.1537,2.1555,2.1565,2.1568,2.1571,2.1541,2.1586,2.1669,2.1677,2.1575,2.1574,2.1573,0,2.1211,2.1276,2.1328,2.1345,2.1384,2.1408,2.1425,2.1453,2.1476,2.1508,2.1523,2.1559,2.1579,2.1606,2.1615,2.1596,2.1673,2.1648,2.1679,2.1678,2.1694,2.1693,2.1779,2.1709,2.1709,2.1709,2.1709,0,2.1284,2.1329,2.1349,2.1381,2.143,2.144,2.1488,2.1504,2.1529,2.1562,2.1562,2.1592,2.1604,2.1637,2.1644,2.1691,2.17,2.1706,2.1707,2.1705,2.1704,2.1716,2.1711,2.1711,2.1711,2.171,2.171,0,2.1344,2.136,2.1416,2.1448,2.1457,2.1492,2.1519,2.1548,2.1561,2.1603,2.1614,2.1633,2.1671,2.1684,2.173,2.1734,2.1788,2.1786,2.1778,2.1777,2.1806,2.1802,2.1902,2.1914,2.1838,2.1839,2.184,0,2.1389,2.1423,2.1459,2.1482,2.15,2.1536,2.156,2.157,2.1594,2.163,2.1655,2.1693,2.1723,2.1783,2.1801,2.1835,2.1833,2.1866,2.1838,2.1834,2.1831,2.1828,2.183,2.187,2.1871,2.1872,2.1872,0,2.1465,2.1471,2.1505,2.1542,2.157,2.1599,2.1628,2.1646,2.166,2.1687,2.1726,2.175,2.1796,2.1833,2.1867,2.1883,2.1879,2.1881,2.1889,2.1887,2.1879,2.1881,2.1789,2.1878,2.1878,2.1877,2.1877,2.1877,2.1517,2.1547,2.1576,2.1614,2.1636,2.1662,2.1691,2.1707,2.174,2.1779,2.1783,2.1825,2.1851,2.1898,2.1915,2.1946,2.1937,2.195,2.1953,2.1955,2.1956,2.1876,2.1953,2.1953,2.1953,2.1953,2.1953,0,2.1592,2.161,2.1645,2.1684,2.1713,2.1709,2.1739,2.1763,2.18,2.1826,2.1856,2.1899,2.1934,2.1954,2.1988,2.2009,2.2008,2.2018,2.2015,2.2019,2.1964,2.1952,2.2018,2.2018,2.2018,2.2018,2.2018,2.2018,2.1634,2.1683,2.1692,2.1751,2.1768,2.181,2.1827,2.185,2.187,2.1919,2.1949,2.1962,2.1984,2.202,2.2051,2.2056,2.2068,2.2078,2.2081,2.203,2.2023,2.2016,2.2005,2.2081,2.2081,2.2133,2.2134,2.2134]},{"header":{"parameterUnit":"m.s-1","parameterCategory":1,"la1":30.2991,"la2":30.254,"lo1":-89.0895,"lo2":-89.0444,"dy":0.0017,"dx":0.0017,"nx":28,"ny":28,"refTime":"2024-06-23T21:00:00:Z","depth":0,"parameterNumber":3,"parameterNumberName":"V-component_of_WINDS"},"data":[0,0,0,0,0,0,0,0,0,0,0,0,0,0,0,0,0,0,0,0,0,0,0,0,0,0,0,0,0,0,0,0,0,0,0,0,0,0,0,0,0,0,0,0,0,0,0,0,0,0,0,0,0,0,0,0,0,0,4.6281,4.6281,0,4.6305,4.6306,4.6306,4.6244,4.6242,4.624,4.6238,4.626,4.6263,4.6265,0,0,0,0,0,0,0,0,0,0,0,0,0,4.6175,4.6178,4.6281,4.6281,4.6281,4.6305,4.6306,4.6306,4.6244,4.6242,4.6239,4.6237,4.626,4.6262,4.6265,0,0,0,0,0,0,0,0,0,0,0,0,0,4.6213,4.6178,4.6281,4.6253,4.6251,4.6305,4.6306,4.6306,4.6245,4.6242,4.6239,4.6236,4.6259,4.6262,4.6266,4.6346,0,0,4.6277,4.6278,0,0,0,0,0,0,0,0,4.6211,4.6217,4.6257,4.6255,4.6253,4.6269,4.6277,4.632,4.6245,4.6247,4.6238,4.6235,4.6265,4.6268,4.6279,4.6347,4.6348,4.6277,4.6279,4.6281,4.6282,0,0,0,0,0,0,0,4.6208,4.6215,4.629,4.6258,4.6255,4.6238,4.6241,4.6285,4.6272,4.6247,4.6242,4.6246,4.6264,4.6276,4.6279,4.6349,4.6277,4.628,4.6282,4.6284,4.6482,4.6485,0,0,0,0,0,0,4.621,4.6213,4.629,4.6291,4.6224,4.6243,4.6245,4.6267,4.6272,4.627,4.6249,4.6243,4.6271,4.6275,4.628,4.6373,4.6281,4.6284,4.6286,4.6479,4.6483,4.6486,0,0,0,0,0,0,4.6208,4.6217,4.6289,4.6251,4.6259,4.6248,4.6272,4.6269,4.6281,4.6273,4.627,4.6264,4.6269,4.6275,4.633,4.6373,4.6286,4.6289,4.6476,4.6481,4.6485,4.6562,0,0,0,0,0,0,4.6205,4.6217,4.6248,4.6252,4.6261,4.634,4.6275,4.6271,4.6287,4.6281,4.6286,4.6285,4.6267,4.6325,4.6334,4.6376,4.6292,4.6472,4.6478,4.6483,4.6555,4.6568,4.658,0,0,0,0,0,4.6201,4.6269,4.625,4.626,4.6301,4.6343,4.6347,4.6327,4.6291,4.6322,4.6317,4.6284,4.6367,4.6331,4.634,4.6385,4.6469,4.6476,4.6483,4.655,4.6566,4.6579,0,0,0,0,0,0,4.6269,4.6269,4.6248,4.6319,4.6332,4.6332,4.637,4.6345,4.6367,4.6359,4.6332,4.6334,4.6394,4.6395,4.6355,4.6462,4.6412,4.6421,4.6459,4.6475,4.6487,4.6484,4.6295,0,0,0,0,0,4.6293,4.6328,4.6325,4.6388,4.6395,4.6382,4.6399,4.6383,4.6394,4.6398,4.6397,4.6408,4.6436,4.6456,4.6481,4.6555,4.6555,4.659,4.6602,4.6613,4.662,4.6658,4.6673,4.6509,4.6509,4.6509,0,0,4.6341,4.6345,4.6369,4.6402,4.6409,4.6445,4.6387,4.6427,4.6453,4.6404,4.6456,4.6456,4.6466,4.6531,4.6559,4.6534,4.6666,4.6621,4.663,4.6632,4.6667,4.6682,4.6696,4.6514,4.6513,4.6513,0,0,4.6447,4.6455,4.6507,4.6516,4.6528,4.6518,4.6531,4.6535,4.6533,4.6586,4.6549,4.6579,4.6629,4.6637,4.6648,4.6756,4.6726,4.6765,4.6829,4.6866,4.6878,4.689,4.6927,4.6941,4.6773,4.6774,4.6774,0,4.6505,4.6559,4.6537,4.658,4.6594,4.6552,4.6604,4.6613,4.6633,4.6643,4.6615,4.6676,4.668,4.6745,4.6771,4.6782,4.6794,4.6764,4.6879,4.689,4.69,4.6935,4.6949,4.6778,4.6778,4.6777,4.6777,0,4.6629,4.6666,4.6707,4.6728,4.6747,4.6794,4.6777,4.6799,4.6781,4.6774,4.6826,4.683,4.6855,4.6869,4.6852,4.6932,4.6915,4.6883,4.6832,4.692,4.6953,4.6966,4.6785,4.6783,4.6782,4.6781,0,0,4.6778,4.6786,4.6801,4.6809,4.6819,4.6847,4.6891,4.6917,4.6935,4.695,4.6985,4.7028,4.6998,4.7011,4.6993,4.7026,4.7109,4.6989,4.6989,4.701,4.7196,4.7219,4.7235,4.709,4.7092,4.7094,4.7195,0,4.6882,4.6959,4.694,4.7016,4.7049,4.701,4.7048,4.7057,4.7052,4.7078,4.7072,4.7102,4.7061,4.7068,4.7099,4.7093,4.7146,4.7085,4.7121,4.7123,4.7119,4.7253,4.7277,4.7372,4.7207,4.721,4.7211,0,4.7013,4.7033,4.7113,4.7116,4.7129,4.7164,4.7185,4.7211,4.7221,4.7214,4.7228,4.7204,4.7246,4.7195,4.7252,4.7211,4.7224,4.7224,4.7227,4.7228,4.7171,4.7256,4.7402,4.7415,4.7231,4.7229,4.7228,0,4.7112,4.716,4.7213,4.7221,4.7227,4.7252,4.7255,4.7262,4.7278,4.7296,4.7305,4.7328,4.734,4.7357,4.7339,4.7304,4.7398,4.7346,4.7393,4.7393,4.7413,4.7412,4.7562,4.7425,4.7424,4.7424,4.7424,0,4.7229,4.7279,4.7257,4.729,4.7344,4.7321,4.7374,4.7373,4.7379,4.7409,4.7377,4.7406,4.738,4.7407,4.7393,4.7441,4.7447,4.7442,4.7438,4.7445,4.7445,4.7452,4.7445,4.7428,4.7427,4.7426,4.7426,0,4.7349,4.7337,4.7392,4.7392,4.7394,4.7433,4.7433,4.7462,4.7454,4.7493,4.7501,4.7488,4.7518,4.7502,4.7532,4.7522,4.7585,4.7572,4.7582,4.7578,4.7625,4.762,4.7783,4.7803,4.7655,4.7656,4.7657,0,4.7424,4.7461,4.7466,4.7484,4.749,4.752,4.7536,4.7514,4.7532,4.7545,4.7573,4.7599,4.7619,4.7668,4.7661,4.7683,4.767,4.7726,4.7673,4.7678,4.7669,4.7667,4.7669,4.7736,4.7737,4.7739,4.774,0,4.7558,4.7549,4.7574,4.7597,4.7617,4.7634,4.7647,4.7664,4.7642,4.7664,4.7694,4.7709,4.774,4.7766,4.7786,4.7787,4.776,4.7757,4.7768,4.7775,4.7779,4.7776,4.7609,4.7753,4.7752,4.7751,4.775,4.7749,4.7656,4.7687,4.7695,4.7723,4.7731,4.7744,4.7771,4.7767,4.7792,4.7815,4.7801,4.7836,4.7842,4.7866,4.7871,4.7897,4.7875,4.7892,4.7896,4.79,4.7906,4.7776,4.7901,4.79,4.79,4.79,4.7899,0,4.7787,4.779,4.7816,4.7836,4.7858,4.7831,4.7844,4.7864,4.7895,4.7905,4.7925,4.7959,4.7984,4.7979,4.8001,4.8023,4.8011,4.8029,4.8027,4.8027,4.7926,4.7913,4.8039,4.8039,4.8039,4.8039,4.8039,4.8039,4.7857,4.7907,4.79,4.7953,4.7955,4.7989,4.7999,4.801,4.8017,4.8056,4.8077,4.8074,4.8077,4.8099,4.8121,4.8119,4.8128,4.8151,4.8144,4.8049,4.8035,4.8022,4.8009,4.8153,4.8154,4.8243,4.8244,4.8245]}]]